TimeMST,TemperatureF,Dew PointF,Humidity,Sea Level PressureIn,VisibilityMPH,Wind Direction,Wind SpeedMPH,Gust SpeedMPH,PrecipitationIn,Events,Conditions,WindDirDegrees,DateUTC
12:51 AM,48.0,34.0,58,30.02,10.0,ESE,3.5,-,N/A,,Mostly Cloudy,110,2013-02-10 07:51:00
1:51 AM,48.0,34.0,58,30.01,10.0,East,4.6,-,N/A,,Mostly Cloudy,90,2013-02-10 08:51:00
2:51 AM,46.0,35.1,66,30.01,10.0,East,5.8,-,N/A,,Mostly Cloudy,80,2013-02-10 09:51:00
3:51 AM,44.1,35.1,71,30.00,10.0,ESE,5.8,-,N/A,,Scattered Clouds,110,2013-02-10 10:51:00
4:51 AM,44.1,34.0,68,29.99,10.0,East,8.1,-,N/A,,Partly Cloudy,90,2013-02-10 11:51:00
5:51 AM,43.0,34.0,71,30.00,10.0,East,8.1,-,N/A,,Partly Cloudy,90,2013-02-10 12:51:00
6:51 AM,42.1,32.0,67,30.01,10.0,East,6.9,-,N/A,,Partly Cloudy,100,2013-02-10 13:51:00
7:51 AM,42.1,33.1,70,30.01,10.0,East,6.9,-,N/A,,Scattered Clouds,90,2013-02-10 14:51:00
8:51 AM,45.0,33.1,63,30.03,10.0,East,9.2,-,N/A,,Scattered Clouds,90,2013-02-10 15:51:00
9:51 AM,48.9,28.9,46,30.03,10.0,East,6.9,-,N/A,,Scattered Clouds,100,2013-02-10 16:51:00
10:51 AM,53.1,28.0,38,30.02,10.0,SE,6.9,-,N/A,,Scattered Clouds,140,2013-02-10 17:51:00
11:51 AM,55.9,28.0,34,30.01,10.0,South,5.8,-,N/A,,Scattered Clouds,180,2013-02-10 18:51:00
12:51 PM,57.9,28.0,32,29.98,10.0,South,8.1,-,N/A,,Mostly Cloudy,190,2013-02-10 19:51:00
1:51 PM,57.9,27.0,31,29.95,10.0,Variable,4.6,-,N/A,,Scattered Clouds,0,2013-02-10 20:51:00
2:51 PM,57.0,27.0,32,29.94,10.0,Calm,Calm,-,N/A,,Mostly Cloudy,0,2013-02-10 21:51:00
3:51 PM,57.9,27.0,31,29.93,10.0,South,6.9,-,N/A,,Mostly Cloudy,190,2013-02-10 22:51:00
4:51 PM,57.9,26.1,30,29.93,10.0,Calm,Calm,-,N/A,,Mostly Cloudy,0,2013-02-10 23:51:00
5:51 PM,57.0,26.1,30,29.93,10.0,Calm,Calm,-,N/A,,Scattered Clouds,0,2013-02-11 00:51:00
6:51 PM,55.9,27.0,33,29.94,10.0,SW,3.5,-,N/A,,Scattered Clouds,220,2013-02-11 01:51:00
7:51 PM,55.0,27.0,34,29.94,10.0,WSW,3.5,-,N/A,,Partly Cloudy,250,2013-02-11 02:51:00
8:51 PM,53.1,28.0,38,29.95,10.0,Calm,Calm,-,N/A,,Partly Cloudy,0,2013-02-11 03:51:00
9:51 PM,53.1,28.0,38,29.96,10.0,Calm,Calm,-,N/A,,Partly Cloudy,0,2013-02-11 04:51:00
10:51 PM,50.0,30.0,46,29.95,10.0,East,8.1,-,N/A,,Partly Cloudy,90,2013-02-11 05:51:00
11:51 PM,48.0,30.9,52,29.95,10.0,East,5.8,-,N/A,,Partly Cloudy,90,2013-02-11 06:51:00